WZZ802 EDNY-EDDS

Flight info

Callsign WZZ802
Flight time 0h 22m
Altitude 16000
Route ALAGO1W ALAGO Z4 ARSUT T125 REUTL REUTL5A
Aircraft A321/M-SDE3FGHIRWY/LB1

Departure

Time 2026-05-05 09:16
Airport Bodensee Airport Friedrichshafen (EDNY)

Arrival

Time 2026-05-05 09:38
Airport Stuttgart Airport (EDDS)
Time Latitude Longitude Altitude Speed Heading
2026-05-05 09:14 47.67426 9.52381 1368 ft 15 kts 48°
2026-05-05 09:14 47.67497 9.52564 1368 ft 18 kts 55°
2026-05-05 09:14 47.67567 9.52573 1372 ft 10 kts 329°
2026-05-05 09:15 47.67636 9.52504 1373 ft 13 kts 311°
2026-05-05 09:15 47.67630 9.52432 1374 ft 0 kts 241°
2026-05-05 09:15 47.67549 9.52217 1368 ft 72 kts 240°
2026-05-05 09:15 47.67139 9.51171 1469 ft 146 kts 239°
2026-05-05 09:16 47.66634 9.49886 2501 ft 144 kts 240°
2026-05-05 09:16 47.66128 9.48590 3425 ft 150 kts 239°
2026-05-05 09:16 47.65573 9.47165 4024 ft 170 kts 239°
2026-05-05 09:16 47.64945 9.45549 4563 ft 192 kts 239°
2026-05-05 09:17 47.64442 9.43597 4956 ft 218 kts 263°
2026-05-05 09:17 47.64847 9.41322 5276 ft 248 kts 304°
2026-05-05 09:17 47.66283 9.39702 5835 ft 275 kts 339°
2026-05-05 09:17 47.68179 9.39034 6875 ft 285 kts 352°
2026-05-05 09:18 47.70174 9.38790 8007 ft 290 kts 357°
2026-05-05 09:18 47.72216 9.38683 9159 ft 296 kts 358°
2026-05-05 09:18 47.74297 9.38578 10226 ft 305 kts 357°
2026-05-05 09:18 47.76504 9.38418 10775 ft 330 kts 356°
2026-05-05 09:19 47.78869 9.38182 11371 ft 348 kts 355°
2026-05-05 09:19 47.81315 9.37883 12264 ft 356 kts 354°
2026-05-05 09:19 47.83810 9.37542 13220 ft 363 kts 353°
2026-05-05 09:19 47.86351 9.37174 14119 ft 370 kts 353°
2026-05-05 09:20 47.88929 9.36794 14967 ft 376 kts 353°
2026-05-05 09:20 47.91520 9.36415 15581 ft 381 kts 353°
2026-05-05 09:20 47.94168 9.36033 15805 ft 382 kts 353°
2026-05-05 09:20 47.96831 9.35656 15877 ft 388 kts 353°
2026-05-05 09:21 47.99525 9.35276 15878 ft 390 kts 353°
2026-05-05 09:21 48.02231 9.34896 15873 ft 391 kts 353°
2026-05-05 09:21 48.04931 9.34517 15873 ft 391 kts 353°
2026-05-05 09:21 48.07648 9.34135 15874 ft 389 kts 353°
2026-05-05 09:22 48.10341 9.33754 15870 ft 389 kts 353°
2026-05-05 09:22 48.13034 9.33369 15870 ft 388 kts 353°
2026-05-05 09:22 48.15724 9.33000 15870 ft 389 kts 355°
2026-05-05 09:22 48.18431 9.33116 15871 ft 389 kts
2026-05-05 09:23 48.21126 9.33562 15874 ft 390 kts
2026-05-05 09:23 48.23789 9.34000 15878 ft 390 kts
2026-05-05 09:23 48.26520 9.34445 15881 ft 390 kts
2026-05-05 09:23 48.29189 9.34876 15883 ft 390 kts
2026-05-05 09:24 48.31891 9.35312 15891 ft 390 kts
2026-05-05 09:24 48.34594 9.35501 15893 ft 389 kts 356°
2026-05-05 09:24 48.37266 9.34915 15893 ft 387 kts 345°
2026-05-05 09:24 48.39791 9.33563 15891 ft 385 kts 333°
2026-05-05 09:25 48.42138 9.31628 15894 ft 384 kts 328°
2026-05-05 09:25 48.44459 9.29635 15894 ft 384 kts 328°
2026-05-05 09:25 48.46778 9.27645 15891 ft 384 kts 328°
2026-05-05 09:25 48.49100 9.25652 15894 ft 384 kts 328°
2026-05-05 09:26 48.51424 9.23659 15896 ft 384 kts 328°
2026-05-05 09:26 48.53739 9.21664 15891 ft 384 kts 327°
2026-05-05 09:26 48.55807 9.19178 15885 ft 379 kts 310°
2026-05-05 09:26 48.57314 9.15955 15889 ft 374 kts 294°
2026-05-05 09:27 48.58168 9.12293 15908 ft 369 kts 278°
2026-05-05 09:27 48.58322 9.08462 15903 ft 364 kts 262°
2026-05-05 09:27 48.57810 9.04751 15899 ft 360 kts 251°
2026-05-05 09:27 48.57102 9.01127 15889 ft 358 kts 251°
2026-05-05 09:28 48.56407 8.97540 15869 ft 354 kts 251°
2026-05-05 09:28 48.55732 8.94027 15469 ft 339 kts 251°
2026-05-05 09:28 48.55086 8.90650 14234 ft 333 kts 251°
2026-05-05 09:28 48.54455 8.87363 12980 ft 328 kts 251°
2026-05-05 09:29 48.53821 8.84076 11693 ft 324 kts 251°
2026-05-05 09:29 48.53192 8.80829 10479 ft 320 kts 252°
2026-05-05 09:29 48.52571 8.77630 9425 ft 313 kts 252°
2026-05-05 09:29 48.52077 8.74578 8874 ft 291 kts 264°
2026-05-05 09:30 48.52317 8.71614 8098 ft 283 kts 290°
2026-05-05 09:30 48.53385 8.69163 7282 ft 280 kts 319°
2026-05-05 09:30 48.55090 8.67855 6839 ft 279 kts 350°
2026-05-05 09:30 48.56998 8.68043 6407 ft 277 kts 21°
2026-05-05 09:31 48.58572 8.69683 5954 ft 278 kts 52°
2026-05-05 09:31 48.59401 8.72270 5496 ft 275 kts 74°
2026-05-05 09:31 48.59929 8.75044 5082 ft 273 kts 75°
2026-05-05 09:31 48.60437 8.77734 5002 ft 259 kts 74°
2026-05-05 09:32 48.60927 8.80257 5007 ft 242 kts 74°
2026-05-05 09:32 48.61397 8.82670 5011 ft 237 kts 75°
2026-05-05 09:32 48.61860 8.85058 5012 ft 237 kts 74°
2026-05-05 09:32 48.62325 8.87457 5012 ft 237 kts 74°
2026-05-05 09:33 48.62786 8.89840 5008 ft 237 kts 74°
2026-05-05 09:33 48.63245 8.92214 4960 ft 231 kts 74°
2026-05-05 09:33 48.63687 8.94503 4739 ft 224 kts 74°
2026-05-05 09:33 48.64115 8.96728 4481 ft 213 kts 74°
2026-05-05 09:34 48.64517 8.98816 4188 ft 202 kts 74°
2026-05-05 09:34 48.64901 9.00810 3924 ft 194 kts 74°
2026-05-05 09:34 48.65273 9.02746 3680 ft 189 kts 73°
2026-05-05 09:34 48.65623 9.04572 3445 ft 173 kts 73°
2026-05-05 09:35 48.65945 9.06254 3208 ft 161 kts 73°
2026-05-05 09:35 48.66524 9.09277 2818 ft 135 kts 74°
2026-05-05 09:35 48.66780 9.10616 2627 ft 130 kts 73°
2026-05-05 09:36 48.67028 9.11913 2452 ft 128 kts 73°
2026-05-05 09:36 48.67276 9.13211 2265 ft 128 kts 74°
2026-05-05 09:36 48.67531 9.14498 2087 ft 128 kts 73°
2026-05-05 09:36 48.67781 9.15787 1957 ft 128 kts 72°
2026-05-05 09:37 48.68024 9.17082 1762 ft 127 kts 73°
2026-05-05 09:37 48.68264 9.18370 1607 ft 127 kts 71°
2026-05-05 09:37 48.68504 9.19640 1427 ft 127 kts 71°
2026-05-05 09:37 48.68750 9.20943 1282 ft 126 kts 71°
2026-05-05 09:38 48.68955 9.22013 1245 ft 76 kts 75°
2026-05-05 09:38 48.69049 9.22511 1227 ft 15 kts 65°
2026-05-05 09:38 48.69151 9.22527 1228 ft 17 kts 344°
2026-05-05 09:38 48.69260 9.22477 1238 ft 18 kts 342°
2026-05-05 09:39 48.69273 9.22324 1239 ft 20 kts 252°
2026-05-05 09:39 48.69228 9.22096 1250 ft 26 kts 255°
2026-05-05 09:39 48.69176 9.21804 1261 ft 32 kts 254°
2026-05-05 09:39 48.69111 9.21476 1263 ft 32 kts 253°
2026-05-05 09:40 48.69051 9.21152 1269 ft 30 kts 253°
2026-05-05 09:40 48.69012 9.20949 1272 ft 30 kts 254°
2026-05-05 09:40 48.68956 9.20651 1279 ft 26 kts 254°
2026-05-05 09:40 48.68905 9.20381 1287 ft 27 kts 253°
2026-05-05 09:41 48.68852 9.20107 1293 ft 27 kts 254°
2026-05-05 09:41 48.68838 9.19900 1299 ft 16 kts 319°
2026-05-05 09:41 48.68926 9.19866 1305 ft 10 kts 341°
2026-05-05 09:41 48.68968 9.19843 1308 ft 2 kts 344°
2026-05-05 09:42 48.68975 9.19840 1309 ft 1 kts 343°
2026-05-05 09:42 48.68976 9.19840 1309 ft 0 kts 343°